Regional Weather Roundup
Issued by NWS Charleston, SC

Current Version | Previous Version | Text Only | Print | Product List | Glossary Off
Versions: 1 2 3 4 5 6 7 8 9 10 11 12 13 14 15 16 17 18 19 20 21 22 23 24 25 26 27 28 29 30 31 32 33 34 35 36 37 38 39 40 41 42 43 44 45 46 47 48 49 50
000 ASUS42 KCHS 291926 RWRCHS REGIONAL WEATHER ROUNDUP NATIONAL WEATHER SERVICE CHARLESTON SC 300 PM EDT WED JUL 29 2015 NOTE: "FAIR" INDICATES FEW OR NO CLOUDS BELOW 12,000 FEET WITH NO SIGNIFICANT WEATHER AND/OR OBSTRUCTIONS TO VISIBILITY. NOT ALL STATIONS ARE QUALITY CONTROLLED BY THE NATIONAL WEATHER SERVICE. USE DATA WITH CAUTION...ESPECIALLY DEWPOINT OBSERVATIONS. SCZ027-030-031-034>040-042>050-292000- ...SOUTHEAST SOUTH CAROLINA... CITY SKY/WX TMP DP RH WIND PRES REMARKS N CHARLESTON MOSUNNY 93 71 48 S3 29.95F HX 100 WATERFRONT PRK N/A 87 78 74 E9 29.94F HX 100 MOUNT PLEASANT LGT RAIN 90 77 66 E6 29.94F HX 102 JOHNS ISLAND FAIR 88 77 70 E9 29.95F HX 100 PINOPOLIS NOT AVBL MONCKS CORNER FAIR 95 66 38 E5 29.95F HX 98 SUMMERVILLE NOT AVBL BEAUFORT MCAS MOSUNNY 92 72 51 E5 29.95F HX 99 BEAUFORT ARPT FAIR 91 73 55 CALM 29.94F HX 100 HILTON HEAD IS MOSUNNY 88 77 70 NE6 29.97F HX 100 WALTERBORO PTCLDY 97 61 30 NE7 29.94F HX 97 ALLENDALE FAIR 95 68 41 VRB3 29.94S HX 99 ...SOUTHERN MIDLANDS AND PEE DEE... CITY SKY/WX TMP DP RH WIND PRES REMARKS GEORGETOWN NOT AVBL KINGSTREE NOT AVBL ORANGEBURG MOSUNNY 95 66 38 NE7 29.95F HX 98 BARNWELL FAIR 97 72 44 CALM 29.95F HX 105 AIKEN NOT AVBL MANNING FAIR 91 64 40 S8 29.95S HX 93 COLUMBIA MOSUNNY 97 68 38 E7 29.94F HX 102 SUMTER MOSUNNY 97 66 35 SE9 29.93F HX 100 FLORENCE SUNNY 95 67 39 VRB5 29.96F HX 99 MYRTLE BEACH MOSUNNY 90 73 58 SE8 29.99S HX 98 N MYRTLE BEACH SUNNY 88 75 65 SE9 29.97F HX 97 $$ GAZ063-065-086>088-099>101-113>116-118-119-134>141-150-292000- ...SOUTHEAST GEORGIA... CITY SKY/WX TMP DP RH WIND PRES REMARKS SAVANNAH ARPT MOSUNNY 93 68 43 NE3 29.94F HX 97 HUNTER AAF MOSUNNY 92 77 61 VRB3 29.92F HX 105 FORT STEWART SUNNY 95 69 43 VRB5 29.92F HX 101 STATESBORO MOSUNNY 94 76 54 S5 29.93F HX 107 SYLVANIA PTCLDY 96 75 51 S3 29.94F HX 108 CLAXTON FAIR 93 72 49 E6 29.93F HX 100 ...CSRA...CENTRAL AND FAR SOUTHEAST GEORGIA... CITY SKY/WX TMP DP RH WIND PRES REMARKS THOMSON MOSUNNY 96 75 51 S3 29.97F HX 108 AUGUSTA-BUSH MOSUNNY 89 73 59 S3 29.94F HX 97 AUGUSTA-DANIEL MOSUNNY 82 72 71 CALM 29.96F SWAINSBORO FAIR 93 77 59 S5 29.95F HX 107 VIDALIA MOSUNNY 91 73 55 CALM 29.94F HX 100 EASTMAN FAIR 96 75 49 E3 29.94F HX 108 HAZLEHURST FAIR 92 74 54 CALM 29.92F HX 102 ALMA MOSUNNY 89 75 63 VRB3 29.94F HX 99 WAYCROSS PTSUNNY 90 81 75 NE5 29.93F HX 110 JESUP FAIR 97 77 52 E7 29.93F HX 112 BAXLEY FAIR 91 75 59 CALM 29.93F HX 102 BRUNSWICK SUNNY 91 73 55 E8 29.94F HX 100 SAINT SIMONS SUNNY 88 73 61 E15 29.94F HX 95 $$ SCZ027-028-034-036>038-045-046-048>050-GAZ119-141-292000- ...LAKE AND SUPPLEMENTAL COASTAL OBSERVATIONS... STATION/POSITION TIME TEMP WIND PRES WAVE SWELL AIR SEA DIR/SP/G HT/PER HT/PER/DIR (UTC) (F) (DEG/KT/KT) (MB) (FT/S) (FT/S/D) UPR LAKE MARION NOT AVBL WINYAH BAY 1800 83 70/ 9 1014.0 LAKE MURRAY 1800 90 230/ 1/ 3 1014.2F ACE BASIN NERRS 1845 93 60/ 2 1015.0F FORT PULASKI 1800 84 N/A SAPELO ISLAND 1900 91 70/ 9 1014.0F $$ ANZ835-935-AMZ111-154-330-350-352-354-370-450-454-472-292000- ...C-MAN AND BUOY OBSERVATIONS... STATION/POSITION TIME TEMP WIND PRES WAVE SWELL AIR SEA DIR/SP/G HT/PER HT/PER/DIR (UTC) (F) (DEG/KT/KT) (MB) (FT/S) (FT/S/D) BUOY 41004 1850 83 85 30/ 16/ 17 1013.7F 3/ 4 2/ 7 BUOY 41008 1850 82 83 30/ 10/ 12 1014.6F 2/ 5 2/110/ 5 FOLLY BEACH CMAN 1900 85 80/ 11/ 12 1014.6F CAPERS NEARSHORE 1808 83 80/ 12/ 14 1015.1F FRIPP NEARSHORE 1800 85 100/ 10/ 12 1014.5F STATION/POSITION TIME TEMP WIND PRES WAVE SWELL AIR SEA DIR/SP/G HT/PER HT/PER/DIR (UTC) (F) (DEG/KT/KT) (MB) (FT/S) (FT/S/D) 5E ST. MARYS GA 1821 83 N/A 2/10 FRYING PAN BUOY 1850 83 84 50/ 14/ 16 1015.0F 3/ 6 2/220/10 BUOY 41025 NOT AVBL CAPE LOOKOUT NC 1900 81 50/ 13/ 15 1015.2F BUOY 41002 1850 83 82 210/ 14/ 16 1015.3F 4/ 6 2/ 40/10 BUOY 41010 1820 82 84 210/ 19/ 25 1013.9R ST AUGUSTINE FL 1900 81 83 40/ 14/ 15 1014.7F $$

USA.gov is the U.S. government's official web portal to all federal, state and local government web resources and services.